Westerly, RI

3:03 AM EDT on September 22, 2017 (GMT -0400)
Westerly State

Weather History for KWST - November, 2012

Change the Weather History Date:

Wednesday, November 28, 2012

  Actual Average (KGON) Record (KGON)
Temperature  
Mean Temperature 34 °F -  
Max Temperature 39 °F 51 °F 66 °F (1984)
Min Temperature 30 °F 34 °F 18 °F (1982)
Degree Days  
Heating Degree Days 30    
Moisture  
Dew Point 29 °F    
Average Humidity 78    
Maximum Humidity 100    
Minimum Humidity 60    
Precipitation  
Precipitation 0.00 in - - ()
Sea Level Pressure  
Sea Level Pressure 30.17 in    
Wind  
Wind Speed 8 mph (NNW)    
Max Wind Speed 14 mph    
Max Gust Speed 20 mph    
Visibility 10 miles    
Events      
Averages and records for this station are not official NWS values.
T = Trace of Precipitation, MM = Missing Value Source: NWS Daily Summary

Daily Weather History Graph

Daily Weather History Graph

Search for Another Location

Airport or City:

Trip Planner

Search our weather history database for the weather conditions in past years. The results will help you decide how hot, cold, wet, or windy it might be!

Date:

Astronomy

Nov. 28, 2012 Rise Set
Actual Time 6:51 AM EST 4:19 PM EST
Civil Twilight 6:20 AM EST 4:50 PM EST
Nautical Twilight 5:46 AM EST 5:24 PM EST
Astronomical Twilight 5:12 AM EST 5:57 PM EST
Moon 4:32 PM EST (11/28) 6:46 AM EST (11/28)
Length of Visible Light 10h 29m
Length of Day
9h 28m
Full, 100% of the Moon is Illuminated
Nov 28
Full
Dec 6
Last Quarter
Dec 13
New
Dec 20
First Quarter
Dec 28
Full

Hourly Weather History & Observations

Time (EST) Temp. Windchill Dew Point Humidity Pressure Visibility Wind Dir Wind Speed Gust Speed Precip Events Conditions
12:53 AM 34.0 °F 28.0 °F 33.1 °F 96% 30.17 in 8.0 mi NNE 6.9 mph - N/A   Overcast
1:36 AM 33.8 °F 27.7 °F 33.8 °F 100% 30.16 in 9.0 mi North 6.9 mph - N/A   Overcast
1:53 AM 34.0 °F 28.0 °F 33.1 °F 96% 30.17 in 9.0 mi North 6.9 mph - N/A   Overcast
2:53 AM 34.0 °F 25.5 °F 32.0 °F 92% 30.16 in 10.0 mi North 11.5 mph - N/A   Overcast
3:53 AM 34.0 °F 28.0 °F 32.0 °F 92% 30.14 in 10.0 mi North 6.9 mph - N/A   Overcast
4:07 AM 33.8 °F 26.4 °F 32.0 °F 93% 30.14 in 10.0 mi North 9.2 mph - N/A   Overcast
4:29 AM 33.8 °F 27.0 °F 32.0 °F 93% 30.16 in 10.0 mi NNW 8.1 mph - N/A   Overcast
4:53 AM 34.0 °F 26.6 °F 32.0 °F 92% 30.17 in 10.0 mi North 9.2 mph - N/A   Overcast
5:53 AM 34.0 °F 27.2 °F 30.9 °F 89% 30.17 in 10.0 mi North 8.1 mph - N/A   Overcast
6:53 AM 34.0 °F 26.0 °F 30.9 °F 89% 30.18 in 10.0 mi North 10.4 mph - N/A   Overcast
7:53 AM 34.0 °F 26.6 °F 30.9 °F 89% 30.18 in 9.0 mi North 9.2 mph - N/A   Overcast
8:53 AM 36.0 °F 28.5 °F 30.9 °F 82% 30.17 in 10.0 mi North 10.4 mph 16.1 mph N/A   Mostly Cloudy
9:53 AM 37.0 °F 30.4 °F 30.9 °F 79% 30.19 in 10.0 mi North 9.2 mph - N/A   Overcast
10:03 AM 35.6 °F 28.0 °F 30.2 °F 81% 30.19 in 10.0 mi North 10.4 mph 17.3 mph N/A   Overcast
10:31 AM 35.6 °F 26.6 °F 28.4 °F 75% 30.17 in 10.0 mi North 13.8 mph 19.6 mph N/A   Overcast
10:53 AM 36.0 °F 27.5 °F 28.9 °F 76% 30.17 in 10.0 mi North 12.7 mph 19.6 mph N/A   Overcast
11:53 AM 37.9 °F 30.9 °F 30.0 °F 73% 30.16 in 10.0 mi North 10.4 mph - N/A   Overcast
12:53 PM 39.0 °F - 30.0 °F 70% 30.14 in 10.0 mi North - - N/A   Partly Cloudy
1:53 PM 39.0 °F 32.8 °F 27.0 °F 62% 30.13 in - North 9.2 mph - N/A   Unknown
2:53 PM 39.0 °F 34.0 °F 26.1 °F 60% 30.14 in 10.0 mi North 6.9 mph - N/A   Partly Cloudy
3:53 PM 37.9 °F 33.5 °F 26.1 °F 62% 30.15 in 10.0 mi NNW 5.8 mph - N/A   Overcast
4:53 PM 37.0 °F - 25.0 °F 62% 30.15 in 10.0 mi Calm Calm - N/A   Overcast
5:53 PM 36.0 °F 32.1 °F 26.1 °F 67% 30.18 in 10.0 mi WNW 4.6 mph - N/A   Clear
6:53 PM 35.1 °F - 23.0 °F 61% 30.19 in 10.0 mi Calm Calm - N/A   Clear
7:53 PM 33.1 °F 30.0 °F 21.9 °F 64% 30.20 in 10.0 mi West 3.5 mph - N/A   Clear
8:53 PM 32.0 °F 28.7 °F 21.9 °F 66% 30.21 in 10.0 mi West 3.5 mph - N/A   Clear
9:53 PM 30.9 °F 26.2 °F 21.9 °F 69% 30.20 in 10.0 mi Variable 4.6 mph - N/A   Clear
10:53 PM 30.9 °F 26.2 °F 23.0 °F 72% 30.22 in 10.0 mi West 4.6 mph - N/A   Clear
11:53 PM 30.9 °F 26.2 °F 23.0 °F 72% 30.22 in 10.0 mi West 4.6 mph - N/A   Clear